Content
SEND FEEDBACK

Daily
Averages
Monthly
Summary
Canada

CALGARY, ALBERTA


Home > North America > Canada > Alberta
Elevation: 3556 feet     Latitude: 51 06N     Longitude: 114 01W

WEATHER
 
SELECT A DAY
Number of Records: 192,098;   Date Range: 1/1/95 - 7/27/14
 
SHARE

PRINT THIS DATA

[ ← Previous Day ]
WEATHER ALMANAC - FEBRUARY 19, 2013
[ Next Day → ]
[ °C ]   °F
Weather ElementAverageHighLow
Temperature20.2 °F24.8 °F (12:00 pm)15.8 °F (8:32 pm)
Dewpoint18.2 °F21.2 °F (1:00 am)15.8 °F (6:00 pm)
Humidity92 %100 % (12:25 am)81 % (11:00 am)
Barometer29.94 in30.00 in (9:41 pm)29.89 in (1:00 pm)
Wind Speed6.4 mph12.7 mph (2:00 am)
Wind Gust18.4 mph (2:00 am)
Weather ElementAverage
Visibility3.2 mi
Wind DirectionSSE (156.6 °)

Weather ElementTotal
Precipitation---
Heating Degree Days44.7 (Base 65)
Averaged from 35 records on February 19, 2013
WEATHER CONDITIONS BREAKOUT
WIND DIRECTION BREAKOUT
WEATHER BY HOUR - FEBRUARY 19, 2013
[ °C ]   °F
Local TimeTemperatureDewpointHumidityBarometerVisibilityWind DirectionWind SpeedGust SpeedPrecipitationEventsConditions
12:25 AM19.4 °F19.4 °F100 %29.96 in2.5 miESE (110°)8.1 mphMist
12:49 AM21.2 °F19.4 °F93 %29.96 in4.0 miSE (140°)6.9 mphOvercast
1:00 AM23.0 °F21.2 °F93 %29.95 in4.0 miSE (140°)8.1 mphOvercast
2:00 AM23.0 °F21.2 °F93 %29.94 in5.0 miSouth (170°)12.7 mph18.4 mphOvercast
4:00 AM21.2 °F19.4 °F93 %29.91 in5.0 miSSE (160°)11.5 mphOvercast
5:00 AM21.0 °F19.0 °F91 %29.91 in4.0 miSouth (170°)11.5 mphMist
5:00 AM21.2 °F19.4 °F93 %29.91 in4.0 miSouth (170°)10.4 mph17.3 mphOvercast
6:00 AM21.2 °F19.4 °F93 %29.91 in3.0 miSouth (190°)6.9 mphOvercast
6:32 AM21.2 °F19.4 °F93 %29.91 in4.0 miSSE (150°)4.6 mphSnowLight Snow Grains
7:00 AM21.2 °F19.4 °F93 %29.91 in4.0 miSE (140°)5.8 mphSnowLight Snow Grains
7:24 AM19.4 °F19.4 °F100 %29.92 in1.0 miSSE (160°)4.6 mphSnowLight Snow Grains
8:00 AM19.4 °F17.6 °F93 %29.92 in2.5 miEast (90°)4.6 mphOvercast
9:00 AM21.2 °F19.4 °F93 %29.92 in2.5 miSE (140°)4.6 mphOvercast
10:00 AM23.0 °F19.4 °F86 %29.91 in4.0 miSouth (170°)6.9 mphOvercast
11:00 AM24.0 °F21.0 °F81 %29.91 in5.0 miSouth (190°)6.9 mphMist
11:00 AM23.0 °F21.2 °F93 %29.91 in5.0 miSouth (180°)5.8 mphOvercast
12:00 PM24.8 °F21.2 °F86 %29.90 in5.0 miESE (110°)6.9 mphOvercast
1:00 PM23.0 °F19.4 °F86 %29.89 in5.0 miESE (120°)8.1 mphOvercast
2:00 PM23.0 °F19.4 °F86 %29.89 in5.0 miESE (110°)6.9 mphOvercast
3:00 PM23.0 °F19.4 °F86 %29.89 in5.0 miSSE (150°)6.9 mphOvercast
4:00 PM23.0 °F19.4 °F86 %29.90 in5.0 miEast (90°)5.8 mphMostly Cloudy
5:40 PM19.4 °F17.6 °F93 %29.94 in4.0 miEast (90°)5.8 mphOvercast
6:00 PM17.6 °F15.8 °F93 %29.95 in3.0 miSSE (160°)4.6 mphOvercast
7:00 PM17.6 °F15.8 °F93 %29.96 in3.0 miSouth (180°)4.6 mphSnowLight Snow Grains
7:50 PM17.6 °F15.8 °F93 %29.97 in2.5 miNNE (30°)4.6 mphSnowLight Snow Grains
8:00 PM17.6 °F15.8 °F93 %29.98 in1.5 miESE (110°)2.3 mphSnowLight Snow Grains
8:13 PM17.6 °F15.8 °F93 %29.98 in1.5 miEast (80°)3.5 mphSnowLight Snow Grains
8:32 PM15.8 °F15.8 °F100 %29.99 in2.5 miNNE (30°)4.6 mphSnowLight Snow Grains
9:00 PM17.6 °F15.8 °F93 %29.99 in2.5 miNNE (30°)6.9 mphSnowLight Snow
9:41 PM17.6 °F15.8 °F93 %30.00 in0.8 miNorth (10°)5.8 mphSnowLight Snow Grains
10:00 PM17.6 °F15.8 °F93 %30.00 in1.0 miNW (320°)3.5 mphSnowLight Snow Grains
10:21 PM17.6 °F15.8 °F93 %30.00 in1.5 miNorth (360°)5.8 mphSnowLight Snow Grains
11:00 PM17.0 °F16.0 °F93 %29.99 in1.0 miNNW (340°)4.6 mphSnowLight Snow
11:00 PM17.6 °F15.8 °F93 %29.99 in1.5 miNNW (340°)5.8 mphSnowLight Snow Grains
11:24 PM17.6 °F15.8 °F93 %30.00 in0.8 miNorth (350°)6.9 mphSnowLight Snow Grains
Hourly data recorded from CYYC, located miles away from Calgary, Alberta







STORIES FROM OUR PARTNERS